Welcome to the New NWS' Forecast!
Most changes are behind the scenes, but click here for differences you might notice.
Latest weather observations around

Talladega Municipal Airport (KASN)

Using English Units (Switch to International System of Units)
Date/ Time (CDT) Wind (mph) Vis. (mi) Weather Sky Cond. Temp (°F) Rel. Humidity Wind Chill (°F) Heat Index (°F) Pressure Precip. (in)
Air Dwpt 6 hour Altimeter (inHg) Sea level (inHg) 1 hr 3 hr 6 hr
Max Min
Aug 17 04:15   7 Mostly Cloudy BKN006 75 74     97%   77 30.05        
Aug 17 03:55   7 Partly Cloudy SCT013 75 74     97%   77 30.05        
Aug 17 03:35   7 Partly Cloudy SCT013 75 74     96%   77 30.05        
Aug 17 03:15   7 Partly Cloudy SCT015 75 74     98%   76 30.05        
Aug 17 02:55   7 Clear CLR 75 74     98%   76 30.05        
Aug 17 02:35   7 Clear CLR 75 74     97%   77 30.05        
Aug 17 02:15   10 Clear CLR 75 74     96%   77 30.04        
Aug 17 01:55   10 Clear CLR 76 74     96%   78 30.04        
Aug 17 01:35   10 Clear CLR 76 74     96%   77 30.04        
Aug 17 01:15   10 Clear CLR 76 74     96%   78 30.04        
Aug 17 00:55   10 Clear CLR 76 75     96%   78 30.05        
Aug 17 00:35   7 Clear CLR 76 75     96%   78 30.05        
Aug 17 00:15   10 Clear CLR 76 75     96%   78 30.06        
Aug 16 23:55   10 Clear CLR 77 75     95%   78 30.06        
Aug 16 23:35   10 Clear CLR 77 75     95%   78 30.07        
Aug 16 23:15   10 Clear CLR 77 75     94%   79 30.07        
Aug 16 22:55   10 Clear CLR 78 75     93%   79 30.08        
Aug 16 22:35   10 Partly Cloudy SCT065 78 76     93%   80 30.09        
Aug 16 22:15   10 Partly Cloudy SCT065 78 76     91%   81 30.09        
Aug 16 21:55   10 Partly Cloudy SCT065 79 76     91%   82 30.09        
Aug 16 21:35   10 Clear CLR 79 76     89%   84 30.09        
Aug 16 21:15   10 Clear CLR 80 76     88%   85 30.08        
Aug 16 20:55   10 Clear CLR 80 76     87%   86 30.07        
Aug 16 20:35   10 Clear CLR 81 76     87%   87 30.06        
Aug 16 20:15   10 Partly Cloudy SCT055 81 77     85%   89 30.04        
Aug 16 19:55   10 Clear CLR 82 77     84%   90 30.03        
Aug 16 19:35   10 Clear CLR 85 76     75%   94 30.04        
Aug 16 19:15   10 Clear CLR 86 75     72%   95 30.03        
Aug 16 18:55   10 Clear CLR 87 75     68%   97 30.03        
Aug 16 18:35   10 Clear CLR 89 75     64%   99 30.03        
Aug 16 18:15   10 Clear CLR 89 75     63%   100 30.03        
Aug 16 17:55   10 Clear CLR 90 75     62%   100 30.03        
Aug 16 17:35   10 Partly Cloudy SCT036 SCT042 90 75     61%   101 30.03        
Aug 16 17:15   10 Partly Cloudy SCT036 SCT042 90 76     62%   102 30.02        
Aug 16 16:55   10 Partly Cloudy SCT038 SCT050 90 76     64%   101 30.02        
Aug 16 16:35   10 Partly Cloudy SCT038 SCT048 90 76     63%   101 30.02        
Aug 16 16:15   10 Partly Cloudy SCT036 SCT042 SCT050 89 75     65%   99 30.02        
Aug 16 15:55   10 Mostly Cloudy SCT036 BKN042 89 75     63%   100 30.03        
Aug 16 15:35   10 Partly Cloudy SCT038 89 75     64%   99 30.03        
Aug 16 15:15   10 Partly Cloudy SCT037 89 74     63%   98 30.04        
Aug 16 14:55   10 Partly Cloudy SCT035 SCT044 90 75     62%   100 30.04        
Aug 16 14:35   10 Partly Cloudy SCT035 89 75     63%   99 30.05        
Aug 16 14:15   10 Mostly Cloudy BKN036 BKN046 88 74     64%   96 30.06        
Aug 16 13:55   10 Mostly Cloudy SCT033 BKN046 88 75     65%   97 30.07        
Aug 16 13:35   10 Mostly Cloudy SCT033 BKN039 87 74     66%   95 30.08        
Aug 16 13:15   10 Mostly Cloudy BKN030 BKN036 88 75     66%   98 30.09        
Aug 16 12:55   10 Mostly Cloudy BKN029 BKN035 86 75     70%   95 30.1        
Aug 16 12:35   10 Partly Cloudy SCT027 SCT035 87 75     69%   96 30.1        
Aug 16 12:15   10 Partly Cloudy SCT025 SCT035 85 74     70%   93 30.1        
Aug 16 11:55   10 Mostly Cloudy BKN023 84 74     72%   91 30.11        
Aug 16 11:35   10 Partly Cloudy SCT021 84 74     72%   92 30.11        
Aug 16 11:15   10 Partly Cloudy SCT019 83 75     75%   91 30.11        
Aug 16 10:55   10 Mostly Cloudy BKN017 83 74     76%   89 30.12        
Aug 16 10:35   10 Mostly Cloudy BKN017 81 73     78%   86 30.12        
Aug 16 10:15   10 Mostly Cloudy BKN013 BKN018 80 74     82%   84 30.12        
Aug 16 09:55   10 Cloudy OVC011 79 73     84%   82 30.12        
Aug 16 09:35   10 Cloudy OVC011 77 73     88%   79 30.12        
Aug 16 09:15   5 Fog/Mist OVC011 77 73     89%   78 30.12        
Aug 16 08:55   10 Cloudy OVC009 76 73     89%   78 30.12        
Aug 16 08:35   10 Cloudy OVC007 75 73     92%   77 30.12        
Aug 16 08:15   7 Cloudy OVC005 75 73     95%   76 30.12        
Aug 16 07:55   5 Fog/Mist OVC005 74 73     97%   76 30.11        
Aug 16 07:35   5 Fog/Mist OVC003 74 73     96%   76 30.1        
Aug 16 07:15   5 Fog/Mist OVC003 74 73     97%   75 30.1        
Aug 16 06:55   5 Fog/Mist OVC005 74 73     97%   75 30.09        
Aug 16 06:35   4 Fog/Mist OVC005 73 72     97%   75 30.09        
Aug 16 06:15   4 Fog/Mist OVC005 74 72     96%   75 30.09        
Aug 16 05:55   10 Cloudy OVC005 73 72     96%   75 30.07        
Aug 16 05:35   10 Cloudy OVC007 72 72     97%   74 30.07        
Aug 16 05:15   10 Cloudy OVC009 72 72     98%   74 30.06        
Aug 16 04:55   7 Mostly Cloudy BKN009 72 71     98%   73 30.05        
Aug 16 04:35   7 Partly Cloudy SCT009 72 71     98%   73 30.04        
Aug 16 04:15   7 Mostly Cloudy BKN009 72 72     98%   74 30.04        
Aug 16 03:55   7 Mostly Cloudy BKN009 72 72     99%   73 30.03        
Aug 16 03:35   7 Cloudy OVC009 72 72     97%   74 30.03        
Aug 16 03:15   10 Partly Cloudy SCT009 72 71     98%   73 30.03        
Aug 16 02:55   10 Clear CLR 72 72     98%   74 30.03        
Aug 16 02:35   10 Clear CLR 72 72     98%   74 30.03        
Aug 16 02:15   7 Clear CLR 72 72     98%   74 30.03        
Aug 16 01:55   7 Clear CLR 72 72     98%   74 30.02        
Aug 16 01:35   7 Clear CLR 73 72     98%   74 30.02        
Aug 16 01:15   7 Clear CLR 73 72     98%   74 30.02        
Aug 16 00:55   7 Clear CLR 73 72     98%   74 30.01        
Aug 16 00:35   10 Clear CLR 73 72     97%   75 30.01        
Aug 16 00:15   10 Clear CLR 73 72     98%   75 30.01        
Aug 15 23:55   10 Clear CLR 74 73     97%   75 30.02        
Aug 15 23:35   10 Clear CLR 74 73     96%   76 30.02        
Aug 15 23:15   10 Clear CLR 75 73     95%   76 30.03        
Aug 15 22:55   10 Clear CLR 75 73     94%   77 30.03        
Aug 15 22:35   10 Clear CLR 76 73     91%   77 30.03        
Aug 15 22:15   10 Clear CLR 76 73     90%   78 30.03        
Aug 15 21:55   10 Clear CLR 76 74     92%   78 30.03        
Aug 15 21:35   10 Clear CLR 76 74     91%   78 30.02        
Aug 15 21:15   10 Clear CLR 76 74     91%   78 30.01        
Aug 15 20:55   10 Clear CLR 76 74     92%   78 30.01        
Aug 15 20:35   10 Clear CLR 77 74     91%   79 30.01        
Aug 15 20:15   10 Clear CLR 77 74     91%   79 30.01        
Aug 15 19:55   10 Clear CLR 77 74     91%   79 30        
Aug 15 19:35   10 Light Rain CLR 77 74     91%   79 30        
Aug 15 19:15   10 Light Rain CLR 79 76     91%   83 29.99        
Aug 15 18:55   10 Clear CLR 81 76     86%   87 29.99        
Aug 15 18:35   10 Thunderstorms CLR 82 76     82%   90 29.98        
Aug 15 18:15   10 Thunderstorms and Rain CLR 83 77     80%   93 29.97        
Aug 15 17:55   10 Clear CLR 86 77     74%   97 29.96        
Aug 15 17:35   10 Clear CLR 87 76     69%   98 29.95        
Aug 15 17:15   10 Partly Cloudy SCT043 SCT050 90 73     58%   98 29.95        
Aug 15 16:55   10 Partly Cloudy SCT045 90 74     59%   100 29.93        
Aug 15 16:35   10 Clear CLR 91 74     58%   102 29.94        
Aug 15 16:15   10 Partly Cloudy SCT043 90 74     61%   100 29.94        
Aug 15 15:55   10 Partly Cloudy SCT035 SCT042 91 75     59%   102 29.93        
Aug 15 15:35   10 Partly Cloudy SCT035 SCT042 91 76     61%   104 29.93        
Aug 15 15:15   10 Partly Cloudy SCT035 SCT047 SCT070 91 77     63%   104 29.95        
Aug 15 14:55   10 Clear CLR 91 76     61%   103 29.95        
Aug 15 14:35   10 Partly Cloudy SCT031 SCT037 SCT043 90 76     63%   102 29.95        
Aug 15 14:15   10 Partly Cloudy SCT031 SCT041 SCT055 89 77     69%   102 29.96        
Aug 15 13:55   10 Partly Cloudy SCT029 SCT044 SCT060 88 76     70%   99 29.96        
Aug 15 13:35   10 Mostly Cloudy BKN029 BKN044 BKN060 89 78     71%   103 29.98        
Aug 15 13:15   10 Mostly Cloudy BKN028 BKN034 89 77     69%   102 29.98        
Aug 15 12:55   10 Partly Cloudy SCT028 SCT034 89 78     70%   103 29.98        
Aug 15 12:35   10 Clear CLR 88 78     71%   101 29.99        
Aug 15 12:15   10 Thunderstorms CLR 88 77     71%   100 30        
Aug 15 11:55   10 Thunderstorms SCT021 87 77     72%   99 30.01        
Aug 15 11:35   10 Thunderstorms SCT019 86 77     75%   98 30.01        
Aug 15 11:15   10 Partly Cloudy SCT017 86 78     76%   98 30.02        
Aug 15 10:55   10 Mostly Cloudy BKN015 84 77     78%   94 30.01        
Aug 15 10:35   10 Mostly Cloudy BKN013 84 77     79%   93 30.02        
Aug 15 10:15   10 Mostly Cloudy BKN011 83 76     81%   91 30.01        
Aug 15 09:55   10 Mostly Cloudy BKN011 82 76     81%   90 30.01        
Aug 15 09:35   10 Cloudy OVC011 81 76     85%   87 30.01        
Aug 15 09:15   10 Cloudy OVC009 79 75     87%   83 30        
Aug 15 08:55   10 Cloudy OVC007 78 75     91%   80 30        
Aug 15 08:35   10 Cloudy OVC005 77 74     92%   79 29.99        
Aug 15 08:15   7 Mostly Cloudy BKN005 BKN008 77 74     91%   78 29.99        
Aug 15 07:55   5 Fog/Mist BKN005 75 74     97%   76 29.98        
Aug 15 07:35   4 Fog/Mist SCT005 74 74     98%   76 29.98        
Aug 15 07:15   3 Fog/Mist CLR 74 73     99%   75 29.98        
Aug 15 06:55   3 Fog/Mist SCT007 73 73     98%   75 29.97        
Aug 15 06:35   4 Fog/Mist SCT003 73 72     99%   74 29.97        
Aug 15 06:15   4 Fog/Mist SCT003 72 72     98%   74 29.96        
Aug 15 05:55   4 Fog/Mist SCT001 SCT008 73 72     99%   74 29.96        
Aug 15 05:35   5 Fog/Mist SCT001 SCT008 72 72     98%   74 29.96        
Aug 15 05:15   5 Fog/Mist SCT003 SCT006 72 72     98%   74 29.95        
Aug 15 04:55   5 Fog/Mist BKN003 73 72     98%   74 29.96        
Aug 15 04:35   7 Mostly Cloudy BKN003 73 72     98%   74 29.96        
Aug 15 04:15   7 Clear CLR 73 73     98%   75 29.95        
Aug 15 03:55   7 Partly Cloudy SCT002 73 72     97%   75 29.95        
Aug 15 03:35   7 Cloudy OVC002 74 73     98%   75 29.95        
Aug 15 03:15   5 Fog/Mist SCT004 74 73     98%   75 29.95        
Aug 15 02:55   5 Fog/Mist SCT002 74 73     97%   76 29.95        
Aug 15 02:35   10 Partly Cloudy SCT004 74 73     97%   76 29.95        
Aug 15 02:15   10 Partly Cloudy SCT004 74 73     97%   75 29.94        
Aug 15 01:55   10 Clear CLR 75 73     94%   76 29.94        
Aug 15 01:35   10 Clear CLR 74 73     96%   76 29.94        
Aug 15 01:15   10 Clear CLR 74 73     96%   76 29.93        
Aug 15 00:55   10 Clear CLR 74 73     97%   76 29.94        
Aug 15 00:35   10 Clear CLR 74 73     97%   76 29.94        
Aug 15 00:15   10 Clear CLR 75 74     97%   76 29.94        
Aug 14 23:55   10 Clear CLR 74 74     97%   76 29.94        
Aug 14 23:35   10 Clear CLR 74 74     97%   76 29.94        
Aug 14 23:15   10 Clear CLR 75 74     96%   77 29.94        
Aug 14 22:55   10 Clear CLR 75 74     96%   77 29.95        
Aug 14 22:35   10 Clear CLR 76 74     96%   77 29.95        
Aug 14 22:15   10 Clear CLR 76 75     96%   78 29.95        
Aug 14 21:55   10 Clear CLR 76 75     97%   78 29.95        
Aug 14 21:35   10 Clear CLR 76 75     97%   78 29.94        
Aug 14 21:15   10 Clear CLR 76 75     96%   78 29.94        
Aug 14 20:55   10 Clear CLR 78 75     92%   80 29.93        
Aug 14 20:35   10 Clear CLR 79 76     90%   82 29.93        
Aug 14 20:15   10 Clear CLR 79 76     90%   83 29.93        
Aug 14 19:55   10 Clear CLR 80 76     88%   85 29.93        
Aug 14 19:35   10 Clear   80 76     87%   86 29.93        
Aug 14 19:15   10 Clear   81 76     85%   87 29.93        
Aug 14 18:55   10 Clear   83 75     78%   90 29.94       0
Aug 14 18:35   10 Partly Cloudy SCT027 84 75     74%   91 29.93        
Aug 14 18:15   10 Partly Cloudy SCT029 85 76     74%   95 29.92        
Aug 14 17:55   10 Clear CLR 86 76     73%   96 29.91        
Aug 14 17:35   10 Partly Cloudy SCT023 85 76     73%   95 29.91        
Aug 14 17:15   10 Clear CLR 86 76     72%   97 29.9        
Aug 14 16:55   10 Partly Cloudy SCT100 86 77     75%   96 29.89        
Aug 14 16:35   10 Clear CLR 85 78     80%   96 29.9        
Aug 14 16:15   10 Clear CLR 83 78     84%   94 29.89        
Aug 14 15:55   10 Clear CLR 81 77     87%   89 29.9   0 0  
Aug 14 15:35   10 Partly Cloudy SCT014 SCT024 SCT038 78 76     91%   82 29.9   0    
Aug 14 15:15   10 Thunderstorms and Rain SCT017 SCT040 BKN050 78 75     89%   82 29.91   0    
Aug 14 14:55   10 Thunderstorms SCT027 SCT047 SCT065 80 76     89%   86 29.92   0    
Aug 14 14:35   7 Thunderstorms and Rain SCT008 SCT025 BKN050 78 76     92%   81 29.9   0    
Notice The following observation data may not be complete
Aug 14 14:15   10 Thunderstorms SCT038 SCT050 BKN070          %     29.91        
Notice The following observation data may not be complete
Aug 14 13:55   10 Clear CLR          %     29.91        
Notice The following observation data may not be complete
Aug 14 13:35   10 Clear CLR          %     29.92        
Notice The following observation data may not be complete
Aug 14 13:15   10 Partly Cloudy SCT038          %     29.92        
Notice The following observation data may not be complete
Aug 14 12:55   10 Partly Cloudy SCT040 SCT049 SCT060          %     29.93        
Notice The following observation data may not be complete
Aug 14 12:35   10 Clear            %     29.94        
Notice The following observation data may not be complete
Aug 14 12:15   10 Clear            %     29.94        
Notice The following observation data may not be complete
Aug 14 11:55   10 Clear            %     29.95        
Notice The following observation data may not be complete
Aug 14 11:35   10 Partly Cloudy SCT038 SCT070          %     29.95        
Notice The following observation data may not be complete
Aug 14 11:15   10 Mostly Cloudy BKN070          %     29.96        
Notice The following observation data may not be complete
Aug 14 10:55   10 Partly Cloudy SCT070          %     29.96        
Notice The following observation data may not be complete
Aug 14 10:35   10 Clear CLR          %     29.96        
Notice The following observation data may not be complete
Aug 14 10:15   10 Clear CLR          %     29.96        
Notice The following observation data may not be complete
Aug 14 09:55   10 Clear CLR          %     29.95        
Notice The following observation data may not be complete
Aug 14 09:35   10 Clear CLR          %     29.96        
Notice The following observation data may not be complete
Aug 14 09:15   10 Clear CLR          %     29.96        
Notice The following observation data may not be complete
Aug 14 08:55   10 Clear CLR          %     29.96        
Notice The following observation data may not be complete
Aug 14 05:55   7 Clear CLR          %     29.96        
Notice The following observation data may not be complete
Aug 14 05:35   7 Clear CLR          %     29.95        
Notice The following observation data may not be complete
Aug 14 05:15   7 Clear CLR          %     29.95        
Notice The following observation data may not be complete
Aug 14 04:55   7 Clear CLR          %     29.94        
Notice The following observation data may not be complete
Aug 14 04:35   7 Clear CLR          %     29.93        
Notice The following observation data may not be complete
Aug 14 03:35   7 Clear CLR          %     29.93        
Notice The following observation data may not be complete
Aug 14 02:55   7 Clear CLR          %     29.93        
Notice The following observation data may not be complete
Aug 14 02:35   7 Clear CLR          %     29.93        
Notice The following observation data may not be complete
Aug 14 02:15   7 Clear CLR          %     29.93        
Notice The following observation data may not be complete
Aug 14 01:55   7 Clear CLR          %     29.93        
Notice The following observation data may not be complete
Aug 14 00:35   10 Clear CLR          %     29.96        
Notice The following observation data may not be complete
Aug 14 00:15   10 Clear CLR          %     29.96        
Notice The following observation data may not be complete
Aug 13 23:55   10 Clear CLR          %     29.96        
Notice The following observation data may not be complete
Aug 13 23:35   10 Clear CLR          %     29.97        
Notice The following observation data may not be complete
Aug 13 22:35   10 Clear CLR          %     29.97        
Notice The following observation data may not be complete
Aug 13 21:55   10 Clear CLR          %     29.98        
Notice The following observation data may not be complete
Aug 13 21:35   10 Clear CLR          %     29.97        
Notice The following observation data may not be complete
Aug 13 20:55   10 Clear CLR          %     29.95        
Notice The following observation data may not be complete
Aug 13 20:35   10 Clear CLR          %              
Notice The following observation data may not be complete
Aug 13 19:35   10 Clear CLR          %     29.95        
Notice The following observation data may not be complete
Aug 13 18:55   10 Clear CLR          %     29.94        
Notice The following observation data may not be complete
Aug 13 18:35   10 Clear CLR          %              
Notice The following observation data may not be complete
Aug 13 17:55   10 Partly Cloudy SCT044          %     29.93        
Notice The following observation data may not be complete
Aug 13 17:35   10 Clear CLR          %     29.93        
Notice The following observation data may not be complete
Aug 13 17:15   10 Partly Cloudy SCT043          %     29.93        
Notice The following observation data may not be complete
Aug 13 16:35   10 Clear CLR          %     29.93        
Notice The following observation data may not be complete
Aug 13 16:15   10 Partly Cloudy SCT043 SCT049          %              
Notice The following observation data may not be complete
Aug 13 15:55   10 Partly Cloudy SCT043          %     29.94        
Notice The following observation data may not be complete
Aug 13 15:35   10 Clear CLR          %     29.95        
Notice The following observation data may not be complete
Aug 13 14:55   10 Clear CLR          %     29.96        
Notice The following observation data may not be complete
Aug 13 14:35   10 Clear CLR          %     29.96        
Notice The following observation data may not be complete
Aug 13 14:15   10 Clear CLR          %              
Notice The following observation data may not be complete
Aug 13 13:55   10 Clear CLR          %     29.97        
Notice The following observation data may not be complete
Aug 13 13:35   10 Partly Cloudy SCT055          %              
Notice The following observation data may not be complete
Aug 13 13:15   10 Clear CLR          %     29.98        
Notice The following observation data may not be complete
Aug 13 12:55   10 Clear CLR          %     29.99        
Notice The following observation data may not be complete
Aug 13 11:55   10 Clear CLR          %     30        
Notice The following observation data may not be complete
Aug 13 11:35   10 Clear CLR          %              
Notice The following observation data may not be complete
Aug 13 10:15   10 Partly Cloudy SCT004          %     30.01        
Notice The following observation data may not be complete
Aug 13 08:35   1 Fog/Mist OVC002          %     30        
Notice The following observation data may not be complete
Aug 13 08:15   0.25 Fog OVC002          %     30.01        
Notice The following observation data may not be complete
Aug 13 07:35   0.25 Fog OVC002          %     29.99        
Notice The following observation data may not be complete
Aug 13 07:15   0.25 Fog OVC002          %     29.99        
Notice The following observation data may not be complete
Aug 13 06:35   0.25 Fog OVC002          %     29.98        
Notice The following observation data may not be complete
Aug 13 06:15   0.25 Fog OVC002          %     29.98        
Notice The following observation data may not be complete
Aug 13 05:35   0.25 Fog OVC002          %     29.96        
Notice The following observation data may not be complete
Aug 13 05:15   0.5 Fog OVC002          %     29.96        
Notice The following observation data may not be complete
Aug 13 04:55   0.25 Fog OVC002          %     29.95        
Notice The following observation data may not be complete
Aug 13 04:35   0.25 Fog OVC002          %     29.95        
Notice The following observation data may not be complete
Aug 13 03:35   1.25 Fog/Mist BKN002 BKN007 BKN100          %     29.95        
Notice The following observation data may not be complete
Aug 13 03:15   3 Fog/Mist SCT100          %              
Notice The following observation data may not be complete
Aug 13 02:35   4 Haze SCT002 OVC100          %     29.95        
Notice The following observation data may not be complete
Aug 13 02:15   5 Haze SCT003 OVC100          %     29.95        
Notice The following observation data may not be complete
Aug 13 01:35   7 Cloudy OVC100          %              
Notice The following observation data may not be complete
Aug 13 01:15   10 Cloudy OVC110          %     29.95        
Notice The following observation data may not be complete
Aug 13 00:55   10 Cloudy OVC110          %     29.96       0
Notice The following observation data may not be complete
Aug 13 00:35   10 Cloudy OVC110          %              
Notice The following observation data may not be complete
Aug 13 00:15   10 Cloudy OVC110          %              
Notice The following observation data may not be complete
Aug 12 23:55   7 Cloudy OVC110          %     29.98        
Notice The following observation data may not be complete
Aug 12 23:35   7 Mostly Cloudy BKN110          %              
Notice The following observation data may not be complete
Aug 12 23:15   10 Partly Cloudy SCT120          %     29.98        
Notice The following observation data may not be complete
Aug 12 22:35   7 Mostly Cloudy BKN110          %     29.98        
Notice The following observation data may not be complete
Aug 12 22:15   7 Mostly Cloudy BKN110          %     29.98        
Notice The following observation data may not be complete
Aug 12 21:35   7 Cloudy OVC100          %     29.98        
Notice The following observation data may not be complete
Aug 12 21:15   7 Cloudy OVC100          %     29.98        
Notice The following observation data may not be complete
Aug 12 20:35   10 Partly Cloudy SCT007 SCT110          %     29.97   0    
Notice The following observation data may not be complete
Aug 12 19:55   10 Cloudy OVC095          %     29.96        
Notice The following observation data may not be complete
Aug 12 19:35   10 Mostly Cloudy BKN095          %     29.96        
Notice The following observation data may not be complete
Aug 12 19:15   10 Mostly Cloudy SCT023 SCT028 BKN060          %     29.95        
Notice The following observation data may not be complete
Aug 12 18:35   10 Cloudy SCT045 BKN075 OVC090          %     29.96        
Notice The following observation data may not be complete
Aug 12 17:55   10 Cloudy SCT023 BKN055 OVC065          %     29.96   0    
Notice The following observation data may not be complete
Aug 12 17:35   5 Light Rain SCT014 BKN026 OVC037          %     29.95   0    
Notice The following observation data may not be complete
Aug 12 16:55   7 Rain SCT021 BKN026 OVC075          %     29.96   0    
Notice The following observation data may not be complete
Aug 12 16:35   5 Rain SCT019 BKN026 OVC065          %     29.95        
Notice The following observation data may not be complete
Aug 12 15:55   10 Mostly Cloudy SCT070 BKN080 BKN110          %     29.95        
Notice The following observation data may not be complete
Aug 12 15:15   10 Mostly Cloudy SCT033 SCT039 BKN050          %              
Notice The following observation data may not be complete
Aug 12 14:55   10 Clear CLR          %     29.95        
Notice The following observation data may not be complete
Aug 12 14:35   10 Partly Cloudy SCT070          %     29.96        
Notice The following observation data may not be complete
Aug 12 13:55   10 Mostly Cloudy SCT023 BKN039 BKN070          %     29.97        
Notice The following observation data may not be complete
Aug 12 13:15   10 Partly Cloudy SCT036 SCT046 SCT060          %     29.98        
Notice The following observation data may not be complete
Aug 12 12:35   10 Partly Cloudy SCT038          %     29.98        
Notice The following observation data may not be complete
Aug 12 11:55   10 Mostly Cloudy BKN029 BKN035          %     29.99        
Notice The following observation data may not be complete
Aug 12 10:15   10 Partly Cloudy SCT014          %     30        
Notice The following observation data may not be complete
Aug 12 09:35   10 Partly Cloudy SCT014          %     30        
Notice The following observation data may not be complete
Aug 12 09:15   10 Mostly Cloudy BKN012          %     30        
Notice The following observation data may not be complete
Aug 12 08:35   5 Haze BKN005 OVC012          %     30        
Notice The following observation data may not be complete
Aug 12 08:15   4 Haze OVC005          %     30.01        
Notice The following observation data may not be complete
Aug 12 02:55   5 Haze BKN007 BKN023 OVC050          %     29.98        
Notice The following observation data may not be complete
Aug 12 02:35   5 Mostly Cloudy SCT007 SCT024 BKN032          %     29.98        
Notice The following observation data may not be complete
Aug 12 02:15   5 Partly Cloudy SCT030          %     29.98        
Notice The following observation data may not be complete
Aug 12 01:55   5 Partly Cloudy SCT016 SCT021 SCT030          %     29.98        
Notice The following observation data may not be complete
Aug 12 01:35   5 Haze BKN022 BKN027 BKN035          %     29.98        
Notice The following observation data may not be complete
Aug 11 23:55   0.5 Fog OVC001          %     29.98        
Notice The following observation data may not be complete
Aug 11 23:15   4 Haze CLR          %     29.98        
Notice The following observation data may not be complete
Aug 11 22:15   4 Haze CLR          %              
Notice The following observation data may not be complete
Aug 11 21:35   5 Haze CLR          %     30.01        
Notice The following observation data may not be complete
Aug 11 21:15   5 Haze CLR          %     30.01        
Notice The following observation data may not be complete
Aug 11 20:55   7 Clear CLR          %     30.02        
Notice The following observation data may not be complete
Aug 11 16:35   10 Mostly Cloudy SCT043 SCT050 BKN090          %     30.01        
Notice The following observation data may not be complete
Aug 11 16:15   10 Mostly Cloudy SCT043 SCT050 BKN090          %     30.02        
Notice The following observation data may not be complete
Aug 11 15:55   7 Light Rain SCT013 BKN041 BKN047          %     30.02   0 0  
Notice The following observation data may not be complete
Aug 11 12:15   10 Cloudy OVC017          %              
Notice The following observation data may not be complete
Aug 11 11:35   10 Cloudy SCT012 BKN018 OVC085          %              
Notice The following observation data may not be complete
Aug 11 09:35   10 Cloudy BKN007 OVC014          %     30.13        
Notice The following observation data may not be complete
Aug 11 09:15   10 Cloudy SCT009 OVC016          %     30.13        
Notice The following observation data may not be complete
Aug 11 08:55   10 Cloudy SCT009 OVC016          %     30.13        
Notice The following observation data may not be complete
Aug 11 08:35   10 Cloudy OVC016          %     30.12        
Notice The following observation data may not be complete
Aug 11 08:15   10 Cloudy OVC018          %     30.12        
Notice The following observation data may not be complete
Aug 11 07:55   10 Cloudy SCT014 BKN023 OVC075          %     30.12        
Notice The following observation data may not be complete
Aug 11 07:35   10 Cloudy OVC014          %     30.11        
Notice The following observation data may not be complete
Aug 11 06:55   10 Cloudy OVC012          %     30.12       0
Notice The following observation data may not be complete
Aug 11 06:35   10 Cloudy OVC012          %     30.12        
Notice The following observation data may not be complete
Aug 11 06:15   10 Cloudy OVC010          %     30.11        
Notice The following observation data may not be complete
Aug 11 05:55   10 Cloudy BKN010 OVC014          %     30.11        
Notice The following observation data may not be complete
Aug 11 05:35   10 Cloudy SCT002 OVC014          %     30.1        
Notice The following observation data may not be complete
Aug 11 05:15   10 Cloudy SCT002 OVC014          %     30.1        
Notice The following observation data may not be complete
Aug 11 04:55   10 Cloudy OVC014          %     30.09        
Notice The following observation data may not be complete
Aug 11 04:35   10 Cloudy OVC014          %     30.09        
Notice The following observation data may not be complete
Aug 11 04:15   10 Mostly Cloudy BKN016          %     30.09        
Notice The following observation data may not be complete
Aug 11 03:55   10 Partly Cloudy SCT029          %     30.08     0  
Notice The following observation data may not be complete
Aug 11 03:35   10 Mostly Cloudy SCT014 BKN029          %     30.08        
Notice The following observation data may not be complete
Aug 11 03:15   10 Mostly Cloudy SCT004 BKN014          %     30.08        
Notice The following observation data may not be complete
Aug 11 02:55   10 Mostly Cloudy BKN004          %     30.08        
Notice The following observation data may not be complete
Aug 11 02:35   10 Partly Cloudy SCT004          %     30.08        
Notice The following observation data may not be complete
Aug 11 02:15   10 Clear CLR          %     30.08        
Notice The following observation data may not be complete
Aug 11 01:55   10 Light Rain CLR          %     30.08   0    
Notice The following observation data may not be complete
Aug 11 01:35   10 Light Rain SCT031 SCT037 SCT050          %     30.09   0    
Notice The following observation data may not be complete
Aug 11 01:15   10 Light Rain SCT001 BKN037 OVC046          %     30.11   0    
Notice The following observation data may not be complete
Aug 11 00:55   10 Light Rain BKN034 BKN044 OVC055          %     30.12   0   1
Notice The following observation data may not be complete
Aug 11 00:35   10 Light Rain SCT028 BKN035 BKN043          %     30.13   0    
Notice The following observation data may not be complete
Aug 11 00:15   10 Light Rain SCT028 BKN035 OVC043          %     30.14   0    
Notice The following observation data may not be complete
Aug 10 23:55   5 Rain SCT008 SCT023 OVC033          %     30.15   0    
Notice The following observation data may not be complete
Aug 10 23:35   5 Rain SCT008 BKN023 OVC032          %     30.16   0    
Notice The following observation data may not be complete
Aug 10 23:20   7 Rain BKN008 BKN030 OVC039          %     30.16   0    
Notice The following observation data may not be complete
Aug 10 22:55   7 Light Rain SCT033 BKN040 OVC060          %     30.15   0    
Notice The following observation data may not be complete
Aug 10 22:35   10 Rain SCT021 BKN035 OVC050          %     30.16   0    
Notice The following observation data may not be complete
Aug 10 22:15   4 Rain SCT021 BKN038 OVC049          %     30.16   0    
Notice The following observation data may not be complete
Aug 10 21:55   5 Rain SCT015 BKN027 OVC038          %     30.17   0 0  
Notice The following observation data may not be complete
Aug 10 21:35   3 Thunderstorms and Rain SCT010 BKN018 OVC026          %     30.16   0    
Aug 10 21:15   7 Thunderstorms and Rain BKN014 OVC020 75 73     96%   76 30.15   0    
Aug 10 20:55   10 Thunderstorms and Rain BKN012 BKN021 OVC049 76 73     92%   77 30.15   0    
Aug 10 20:35   4 Thunderstorms and Rain SCT010 BKN030 OVC047 76 72     89%   77 30.13   0    
Aug 10 20:15   10 Thunderstorms BKN030 BKN036 OVC055 81 73     78%   85 30.1        
Aug 10 19:55   10 Thunderstorms SCT046 SCT055 80 77     91%   85 30.08        
Aug 10 19:35   10 Thunderstorms CLR 81 77     88%   88 30.09        
Aug 10 19:15   10 Thunderstorms CLR 85 76     73%   94 30.09        
Aug 10 18:55   10 Clear CLR 86 76     72%   95 30.08        
Notice The following observation data may not be complete
Aug 10 18:35   10 Clear CLR          %              
Aug 10 18:15   10 Clear CLR 86 74     67%   94 30.08        
Aug 10 17:55   10 Clear CLR 86 75     69%   95 30.07        
Aug 10 17:35   10 Clear CLR 87 75     68%   95 30.07        
Aug 10 17:15   10 Clear CLR 86 75     69%   96 30.07        
Aug 10 16:55   10 Clear CLR 85 75     71%   94 30.07        
Aug 10 16:35   10 Partly Cloudy SCT044 SCT055 SCT070 85 75     73%   93 30.07        
Aug 10 16:15   10 Mostly Cloudy SCT030 BKN044 BKN049 85 75     72%   93 30.08        
Aug 10 15:55   10 Mostly Cloudy BKN030 BKN044 BKN060 86 75     69%   95 30.09        
Aug 10 15:35   10 Mostly Cloudy SCT044 BKN095 86 74     68%   95 30.09        
Aug 10 15:15   10 Partly Cloudy SCT042 SCT055 SCT085 87 74     66%   96 30.09        
Aug 10 14:55   10 Clear CLR 87 74     65%   96 30.1        
Aug 10 14:35   10 Partly Cloudy SCT060 SCT075 85 74     69%   93 30.11        
Aug 10 14:15   10 Mostly Cloudy SCT060 BKN075 83 75     77%   90 30.12        
Aug 10 13:55   10 Mostly Cloudy SCT024 SCT040 BKN050 85 75     73%   93 30.13        
Aug 10 13:35   10 Cloudy BKN024 BKN033 OVC070 85 74     72%   92 30.13        
Aug 10 13:15   10 Cloudy BKN024 OVC029 84 75     74%   92 30.14        
Aug 10 12:55   10 Cloudy SCT022 BKN031 OVC075 84 74     74%   91 30.15        
Aug 10 12:35   10 Mostly Cloudy SCT022 SCT033 BKN075 85 76     75%   95 30.16        
Aug 10 12:15   10 Mostly Cloudy SCT016 SCT022 BKN070 84 75     74%   92 30.17        
Aug 10 11:55   10 Cloudy SCT016 BKN022 OVC070 82 75     79%   89 30.18        
Aug 10 11:35   10 Cloudy SCT014 BKN024 OVC031 82 75     81%   88 30.18        
Aug 10 11:15   10 Cloudy SCT014 BKN028 OVC035 81 75     82%   88 30.19        
Aug 10 10:55   10 Cloudy SCT014 OVC027 81 75     82%   86 30.19        
Aug 10 10:35   10 Cloudy SCT010 BKN014 OVC022 80 74     84%   84 30.18        
Aug 10 10:15   10 Cloudy BKN010 BKN016 OVC022 79 75     86%   83 30.18        
Aug 10 09:55   10 Cloudy BKN010 OVC015 78 74     89%   80 30.18        
Aug 10 09:35   10 Cloudy BKN013 OVC018 78 74     88%   80 30.17        
Aug 10 09:15   10 Cloudy OVC013 77 74     91%   79 30.17        
Aug 10 08:55   10 Cloudy OVC011 77 74     92%   78 30.17        
Aug 10 08:35   7 Cloudy OVC011 76 74     94%   77 30.17        
Aug 10 08:15   10 Cloudy OVC011 75 73     94%   77 30.17        
Aug 10 07:55   10 Cloudy OVC013 74 73     95%   76 30.17        
Aug 10 07:35   10 Cloudy OVC013 74 72     95%   76 30.16        
Aug 10 07:15   10 Cloudy OVC013 74 73     96%   76 30.16        
Aug 10 06:55   10 Cloudy OVC013 74 73     96%   75 30.15        
Aug 10 06:35   10 Cloudy OVC013 73 72     96%   75 30.15        
Aug 10 06:15   7 Mostly Cloudy BKN013 72 72     98%   74 30.15        
Aug 10 05:55   7 Partly Cloudy SCT013 72 71     98%   73 30.14        
Aug 10 05:35   10 Clear CLR 72 71     98%   73 30.14        
Aug 10 05:15   10 Clear CLR 72 72     98%   74 30.13        
Aug 10 04:55   10 Clear CLR 73 72     98%   74 30.13        
Aug 10 04:35   10 Partly Cloudy SCT013 74 73     98%   75 30.13        
Aug 10 04:15   10 Cloudy OVC011 74 73     95%   76 30.12        
Aug 10 03:55   10 Cloudy OVC009 74 73     95%   76 30.13        
Aug 10 03:35   10 Cloudy OVC011 74 73     95%   76 30.14        
Aug 10 03:15   10 Cloudy OVC011 74 73     95%   76 30.14        
Aug 10 02:55   10 Cloudy BKN011 BKN033 OVC065 74 72     96%   75 30.14        
Aug 10 02:35   10 Mostly Cloudy SCT011 BKN036 BKN050 74 72     95%   75 30.13        
Aug 10 02:15   10 Mostly Cloudy BKN038 BKN047 BKN095 74 72     95%   75 30.14        
Aug 10 01:55   10 Clear CLR 73 72     96%   75 30.14        
Aug 10 01:35   10 Mostly Cloudy SCT037 SCT044 BKN065 73 72     95%   75 30.14        
Aug 10 01:15   10 Cloudy OVC065 74 72     95%   75 30.14        
Aug 10 00:55   10 Cloudy SCT055 OVC075 74 73     98%   75 30.15       0
Aug 10 00:35   10 Mostly Cloudy SCT049 SCT055 BKN075 73 73     98%   75 30.15        
Aug 10 00:15   10 Mostly Cloudy SCT049 SCT060 BKN075 73 73     98%   75 30.15        
Aug 09 23:55   10 Partly Cloudy SCT060 SCT075 73 72     97%   75 30.15        
Aug 09 23:35   10 Partly Cloudy SCT075 SCT095 SCT110 74 73     98%   75 30.15        
Aug 09 23:15   10 Mostly Cloudy SCT075 BKN095 BKN110 74 73     98%   75 30.16        
Aug 09 22:55   10 Rain SCT065 SCT085 74 73     98%   75 30.16        
Aug 09 22:35   10 Partly Cloudy SCT013 SCT065 SCT085 74 73     97%   75 30.16        
Aug 09 22:15   10 Mostly Cloudy SCT019 BKN075 74 73     97%   75 30.16        
Aug 09 21:55   10 Mostly Cloudy BKN019 BKN120 74 73     97%   76 30.16     0  
Aug 09 21:35   10 Mostly Cloudy SCT060 BKN120 74 73     97%   76 30.15        
Aug 09 21:15   10 Mostly Cloudy SCT060 SCT075 BKN120 74 73     97%   76 30.14        
Aug 09 20:55   10 Light Rain SCT018 BKN065 OVC085 74 73     96%   76 30.13   0    
Aug 09 20:35   10 Cloudy SCT020 BKN050 OVC080 75 74     95%   77 30.14        
Aug 09 20:15   10 Cloudy BKN060 BKN075 OVC090 75 74     95%   77 30.14        
Aug 09 19:55   10 Cloudy SCT060 BKN075 OVC090 75 74     94%   77 30.14   0    
Aug 09 19:35   10 Mostly Cloudy SCT025 SCT050 BKN090 74 73     95%   76 30.12   0    
Aug 09 19:15   4 Rain SCT016 BKN027 OVC050 75 73     96%   76 30.11   0    
Aug 09 18:55   5 Heavy Rain SCT023 BKN034 OVC075 76 73     93%   77 30.11   0   0
Aug 09 18:35   10 Cloudy SCT021 BKN038 OVC050 78 73     83%   80 30.11        
Aug 09 18:15   10 Cloudy SCT045 BKN050 OVC110 80 73     80%   85 30.1        
Aug 09 17:55   10 Thunderstorms BKN100 BKN120 81 73     78%   85 30.1        
Aug 09 17:35   10 Partly Cloudy SCT090 81 74     79%   85 30.09        
Aug 09 17:15   10 Partly Cloudy SCT100 81 74     78%   86 30.09        
Aug 09 16:55   10 Partly Cloudy SCT023 SCT070 83 74     73%   89 30.09        
Aug 09 16:35   10 Partly Cloudy SCT110 82 72     73%   87 30.09        
Aug 09 16:15   10 Partly Cloudy SCT110 83 74     75%   89 30.08        
Aug 09 15:55   10 Partly Cloudy SCT100 SCT120 83 72     70%   89 30.09        
Aug 09 15:35   10 Partly Cloudy SCT035 SCT070 SCT100 81 73     78%   86 30.09        
Aug 09 15:15   10 Mostly Cloudy SCT026 BKN034 BKN075 80 72     77%   83 30.09        
Aug 09 14:55   10 Mostly Cloudy SCT034 SCT065 BKN080 84 71     65%   90 30.09        
Aug 09 14:35   10 Cloudy SCT028 SCT034 OVC080 85 72     64%   91 30.1        
Aug 09 14:15   10 Cloudy SCT022 BKN027 OVC080 85 72     65%   91 30.1        
Aug 09 13:55   10 Mostly Cloudy BKN027 BKN031 BKN070 83 74     72%   90 30.11        
Aug 09 13:35   10 Partly Cloudy SCT027 SCT070 SCT080 84 73     69%   90 30.11        
Aug 09 13:15   10 Partly Cloudy SCT080 SCT110 84 73     69%   90 30.11        
Aug 09 12:55   10 Partly Cloudy SCT050 SCT090 SCT110 83 73     72%   90 30.12        
Aug 09 12:35   10 Mostly Cloudy SCT042 BKN050 BKN090 81 74     77%   87 30.13        
Aug 09 12:15   10 Mostly Cloudy SCT038 BKN044 BKN100 82 73     73%   88 30.13        
Aug 09 11:55   10 Mostly Cloudy SCT021 SCT027 BKN038 82 73     73%   87 30.13        
Aug 09 11:35   10 Partly Cloudy SCT021 SCT028 SCT043 82 72     74%   87 30.14        
Aug 09 11:15   10 Cloudy SCT015 BKN043 OVC065 80 73     81%   84 30.14        
Aug 09 10:55   10 Mostly Cloudy SCT015 SCT033 BKN039 80 73     81%   84 30.14        
Aug 09 10:35   10 Mostly Cloudy SCT012 BKN019 BKN033 80 74     81%   85 30.14        
Aug 09 10:15   10 Cloudy SCT010 BKN019 OVC075 78 74     87%   80 30.14        
Aug 09 09:55   10 Mostly Cloudy SCT010 SCT017 BKN075 78 73     86%   79 30.14        
Aug 09 09:35   10 Mostly Cloudy SCT008 BKN015 BKN033 77 73     89%   78 30.13        
Aug 09 09:15   10 Cloudy BKN008 OVC033 75 73     92%   77 30.13        
Aug 09 08:55   10 Cloudy OVC006 74 73     94%   76 30.12        
Aug 09 08:35   10 Cloudy OVC006 74 72     95%   75 30.12        
Aug 09 08:15   10 Cloudy OVC006 73 72     97%   75 30.12        
Aug 09 07:55   10 Cloudy BKN003 BKN008 OVC039 73 72     97%   75 30.12        
Aug 09 07:35   10 Mostly Cloudy SCT001 BKN010 BKN039 72 72     98%   74 30.11        
Aug 09 07:15   10 Cloudy OVC010 72 72     99%   74 30.11        
Aug 09 06:55   10 Cloudy BKN008 OVC012 72 71     99%   73 30.1        
Aug 09 06:35   10 Cloudy BKN002 OVC010 72 71     98%   73 30.11        
Aug 09 06:15   5 Fog/Mist OVC002 72 71     98%   73 30.1        
Aug 09 05:55   5 Fog/Mist OVC002 71 71     99%   73 30.09        
Aug 09 05:35   5 Fog/Mist OVC002 71 71     99%   73 30.09        
Aug 09 05:15   7 Cloudy BKN002 OVC038 71 71     99%   73 30.09        
Aug 09 04:55   10 Cloudy SCT004 BKN038 OVC100 71 71     99%   73 30.09        
Aug 09 04:35   10 Clear   71 71     99%   73 30.08        
Aug 09 04:15   10 Clear   71 71     99%   73 30.08        
Aug 09 03:55   10 Clear   71 71     99%   73 30.07        
Aug 09 03:35   5 Fog/Mist SCT001 OVC110 71 71     99%   73 30.07        
Aug 09 03:15   0.5 Fog OVC001 71 71     99%   73 30.07        
Aug 09 02:55   0.5 Fog OVC001 71 71     99%   72 30.06        
Aug 09 02:35   3 Fog/Mist SCT001 71 71     99%   72 30.07        
Aug 09 02:15   5 Fog/Mist BKN001 BKN042 BKN050 71 71     98%   73 30.07        
Aug 09 01:55   1.25 Fog/Mist OVC001 72 71     99%   73 30.07        
Aug 09 01:35   1.25 Fog/Mist OVC001 72 71     99%   73 30.08        
Aug 09 01:15   0.25 Fog OVC001 72 71     98%   73 30.08        
Aug 09 00:55   1 Fog/Mist BKN001 BKN090 72 71     98%   73 30.07       0
Aug 09 00:35   1.75 Fog/Mist BKN001 OVC090 72 71     99%   73 30.07        
Aug 09 00:15   3 Fog/Mist BKN001 OVC006 72 72     99%   74 30.07        
Aug 08 23:55   4 Fog/Mist BKN001 BKN006 BKN095 72 72     99%   73 30.07        
Aug 08 23:35   5 Fog/Mist SCT095 72 72     99%   74 30.07        
Aug 08 23:15   5 Fog/Mist SCT003 72 72     98%   74 30.06        
Aug 08 22:55   10 Cloudy BKN005 OVC110 73 73     98%   75 30.06        
Aug 08 22:35   7 Partly Cloudy SCT005 SCT110 73 72     99%   74 30.06        
Aug 08 22:15   7 Partly Cloudy SCT003 73 72     98%   75 30.06        
Aug 08 21:55   7 Mostly Cloudy BKN003 73 73     98%   75 30.06   0 0  
Aug 08 21:35   5 Fog/Mist OVC003 73 73     98%   75 30.06   0    
Aug 08 21:15   7 Light Drizzle SCT003 74 73     99%   75 30.06   0    
Aug 08 20:55   10 Partly Cloudy SCT003 74 73     99%   75 30.05   0    
Aug 08 20:35   7 Light Rain SCT003 SCT025 SCT031 74 73     98%   76 30.05   0    
Aug 08 20:15   10 Light Rain SCT007 SCT023 BKN042 74 73     96%   76 30.05   0    
Aug 08 19:55   10 Partly Cloudy SCT005 SCT011 74 73     97%   76 30.05        
Aug 08 19:35   10 Mostly Cloudy SCT005 BKN025 BKN090 74 73     97%   76 30.05        
Aug 08 19:15   10 Cloudy SCT006 BKN021 OVC085 75 73     95%   77 30.05        
Aug 08 18:55   10 Cloudy BKN006 BKN021 OVC085 75 73     95%   77 30.04       0
Aug 08 18:35   10 Cloudy SCT006 OVC085 75 74     96%   77 30.04        
Aug 08 18:15   10 Light Drizzle SCT015 SCT029 BKN085 75 73     95%   77 30.03        
Aug 08 17:55   10 Light Drizzle BKN007 BKN015 BKN029 75 73     96%   76 30.03   0    
Aug 08 17:35   5 Rain BKN007 BKN013 OVC019 75 74     96%   77 30.03   0    
Aug 08 17:15   10 Light Rain BKN011 BKN015 OVC021 75 73     95%   77 30.03        
Aug 08 16:55   10 Light Drizzle BKN011 OVC016 75 73     93%   77 30.03        
Aug 08 16:35   10 Cloudy SCT010 OVC015 75 73     92%   77 30.03        
Aug 08 16:15   10 Cloudy SCT007 BKN013 OVC095 76 73     92%   77 30.03        
Aug 08 15:55   10 Mostly Cloudy SCT007 BKN080 76 74     93%   77 30.04     0  
Aug 08 15:35   10 Cloudy SCT004 BKN070 OVC085 75 73     93%   77 30.04        
Aug 08 15:15   10 Cloudy SCT004 BKN018 OVC070 75 73     94%   76 30.04        
Aug 08 14:55   10 Cloudy OVC016 74 73     96%   76 30.05   0    
Aug 08 14:15   5 Heavy Rain SCT007 BKN017 OVC021 74 73     95%   76 30.06   0    
Aug 08 13:35   10 Cloudy BKN005 BKN010 OVC020 76 74     94%   77 30.06        
Aug 08 13:15   10 Cloudy BKN007 BKN010 OVC020 76 74     92%   78 30.07        
Aug 08 12:55   5 Fog/Mist BKN009 BKN017 OVC033 75 73     95%   76 30.07   0   0
Aug 08 12:35   7 Drizzle SCT007 OVC015 74 73     95%   76 30.07   0    
Aug 08 12:15   7 Light Rain SCT007 OVC015 75 73     94%   76 30.07        
Aug 08 11:55   10 Light Rain SCT007 BKN013 OVC023 74 72     94%   76 30.07   0    
Aug 08 11:35   10 Cloudy OVC007 74 73     95%   76 30.08   0    
Aug 08 11:15   10 Light Rain OVC007 74 73     95%   76 30.08   0    
Aug 08 10:55   10 Drizzle SCT005 SCT009 OVC033 74 73     95%   76 30.08   0    
Aug 08 10:35   5 Light Rain OVC033 73 72     97%   75 30.07   0    
Aug 08 10:15   2.5 Rain OVC033 73 72     96%   75 30.07   0    
Aug 08 09:55   10 Rain OVC033 73 72     96%   75 30.07   0 0  
Aug 08 09:35   7 Light Rain OVC035 73 72     95%   75 30.06   0    
Aug 08 09:15   3 Rain SCT026 SCT030 OVC037 73 72     98%   75 30.06   0    
Aug 08 08:55   3 Rain SCT024 BKN030 OVC036 73 72     97%   75 30.06   0    
Aug 08 08:35   5 Light Rain SCT025 BKN029 OVC037 73 72     98%   75 30.05   0    
Aug 08 08:15   4 Rain BKN031 OVC045 73 72     99%   74 30.04   0    
Aug 08 07:55   5 Rain SCT010 BKN041 OVC047 73 72     97%   75 30.05   0    
Aug 08 07:35   2 Heavy Rain SCT002 BKN016 OVC041 73 72     98%   75 30.04   0    
Aug 08 07:15   5 Drizzle OVC046 73 72     99%   74 30.03   0    
Aug 08 06:55   5 Drizzle SCT023 OVC048 73 72     98%   74 30.03   0   0
Aug 08 06:35   4 Light Rain SCT016 BKN023 OVC031 73 72     98%   74 30.03   0    
Aug 08 06:15   3 Rain SCT004 BKN026 OVC047 73 72     98%   74 30.03   0    
Aug 08 05:55   5 Light Rain SCT004 SCT025 BKN080 73 72     98%   74 30.02   0    
Aug 08 05:35   5 Light Rain SCT022 SCT028 SCT036 73 72     98%   74 30.01   0    
Aug 08 05:15   7 Light Rain SCT024 SCT031 SCT039 73 72     97%   75 30.01   0    
Aug 08 04:55   7 Light Rain SCT004 SCT021 BKN030 73 72     97%   75 30.01   0    
Aug 08 04:35   7 Light Rain SCT004 BKN021 OVC090 74 72     96%   75 30.01        
Aug 08 04:15   10 Light Rain SCT070 BKN090 74 72     95%   75 30.01        
Aug 08 03:55   10 Cloudy SCT070 OVC100 74 72     94%   75 30        
Aug 08 03:35   10 Mostly Cloudy BKN100 74 72     96%   75 30        
Aug 08 03:15   10 Light Rain SCT032 SCT041 SCT120 74 72     95%   76 29.99        
Aug 08 02:55   10 Mostly Cloudy BKN120 74 72     96%   75 30        
Aug 08 02:35   10 Partly Cloudy SCT120 73 72     97%   75 30        
Aug 08 02:15   10 Partly Cloudy SCT055 73 72     96%   75 30.01        
Aug 08 01:55   10 Clear CLR 74 72     95%   75 30.01        
Aug 08 01:35   10 Partly Cloudy SCT050 74 72     93%   76 30.02        
Aug 08 01:15   10 Light Rain SCT050 74 72     94%   76 30.02        
Aug 08 00:55   10 Partly Cloudy SCT015 74 72     94%   76 30.03        
Aug 08 00:35   10 Clear CLR 74 72     96%   75 30.03        
Aug 08 00:15   10 Clear CLR 74 72     95%   76 30.03        
Aug 07 23:55   10 Clear CLR 75 72     92%   76 30.03        
Aug 07 23:35   10 Clear CLR 76 72     87%   78 30.04        
Aug 07 23:15   10 Clear CLR 76 72     87%   78 30.04        
Aug 07 22:55   10 Partly Cloudy SCT017 76 72     88%   78 30.04        
Aug 07 22:35   10 Partly Cloudy SCT013 SCT019 77 72     87%   78 30.04        
Aug 07 22:15   10 Light Drizzle OVC013 77 73     87%   78 30.05        
Aug 07 21:55   10 Light Rain BKN013 BKN042 BKN048 77 73     88%   79 30.04        
Aug 07 21:35   10 Mostly Cloudy SCT040 BKN045 BKN065 77 73     87%   79 30.03        
Aug 07 21:15   10 Partly Cloudy SCT037 77 74     88%   79 30.02        
Aug 07 20:55   10 Drizzle CLR 79 75     88%   82 30.01        
Aug 07 20:35   10 Light Drizzle CLR 80 75     86%   84 29.99        
Aug 07 20:15   10 Clear CLR 79 76     90%   82 29.99        
Aug 07 19:55   10 Clear CLR 80 75     87%   84 29.98        
Aug 07 19:35   10 Thunderstorms CLR 80 76     87%   84 29.98        
Aug 07 19:15   10 Clear CLR 81 76     84%   87 29.98        
Aug 07 18:55   10 Clear CLR 81 75     83%   87 29.97        
Aug 07 18:35   10 Clear CLR 83 73     72%   89 29.97        
Aug 07 18:15   10 Partly Cloudy SCT095 84 73     70%   90 29.97        
Aug 07 17:55   10 Partly Cloudy SCT095 84 72     68%   90 29.98        
Aug 07 17:35   10 Clear CLR 84 72     68%   90 29.98        
Aug 07 17:15   10 Clear CLR 84 72     68%   90 29.98        
Aug 07 16:55   10 Clear CLR 85 73     68%   91 29.98        
Aug 07 16:35   10 Clear CLR 84 72     66%   90 29.98        
Aug 07 16:15   10 Clear CLR 84 72     66%   90 29.98        
Aug 07 15:55   10 Clear CLR 85 71     65%   90 29.98        
Aug 07 15:35   10 Clear CLR 85 72     64%   91 29.99        
Aug 07 15:15   10 Clear CLR 85 72     65%   92 29.99        
Aug 07 14:55   10 Clear CLR 86 72     63%   92 30        
Aug 07 14:35   10 Clear CLR 86 73     65%   94 30        
Aug 07 14:15   10 Clear CLR 85 73     67%   93 30        
Aug 07 13:55   10 Partly Cloudy SCT029 SCT100 85 73     66%   92 30.01        
Aug 07 13:35   10 Partly Cloudy SCT100 86 74     68%   94 30.01        
Aug 07 13:15   10 Partly Cloudy SCT030 SCT036 SCT042 85 73     69%   92 30.01        
Aug 07 12:55   10 Partly Cloudy SCT031 SCT039 85 73     67%   92 30.02       0
Aug 07 12:35   10 Clear CLR 85 72     66%   91 30.03        
Aug 07 12:15   10 Clear CLR 85 75     71%   93 30.03        
Aug 07 11:55   10 Partly Cloudy SCT029 SCT034 84 75     73%   92 30.04        
Aug 07 11:35   10 Mostly Cloudy SCT025 BKN032 BKN075 83 74     74%   89 30.04        
Aug 07 11:15   10 Mostly Cloudy SCT022 BKN030 BKN075 83 74     77%   89 30.05        
Aug 07 10:55   10 Partly Cloudy SCT019 SCT029 SCT100 82 74     79%   88 30.05   0    
Aug 07 10:35   10 Mostly Cloudy BKN018 BKN024 BKN029 81 75     81%   87 30.04        
Aug 07 10:15   10 Cloudy BKN016 BKN020 OVC029 80 75     83%   86 30.03        
Aug 07 09:55   10 Cloudy BKN017 BKN024 OVC029 80 75     85%   84 30.03        
Aug 07 09:35   10 Cloudy OVC017 79 74     86%   83 30.03        
Aug 07 09:15   10 Cloudy BKN015 OVC020 79 74     87%   82 30.03        
Aug 07 08:55   10 Cloudy BKN015 OVC021 78 75     89%   82 30.03        
Aug 07 08:35   10 Cloudy OVC014 77 74     91%   79 30.03        
Aug 07 08:15   10 Mostly Cloudy BKN014 77 74     91%   79 30.03        
Aug 07 07:55   10 Mostly Cloudy SCT016 BKN020 BKN038 77 74     92%   79 30.03        
Aug 07 07:35   10 Cloudy SCT011 BKN018 OVC075 77 74     92%   78 30.03        
Aug 07 07:15   10 Cloudy SCT014 BKN021 OVC065 76 74     94%   78 30.03        
Aug 07 06:55   10 Cloudy BKN023 BKN031 OVC065 76 74     94%   78 30.03       0
Aug 07 06:35   7 Cloudy SCT013 OVC021 76 74     96%   77 30.03        
Aug 07 06:15   7 Mostly Cloudy BKN019 75 74     95%   77 30.02        
Aug 07 05:55   7 Mostly Cloudy SCT008 BKN015 BKN021 75 74     96%   77 30.01        
Aug 07 05:35   7 Mostly Cloudy SCT009 BKN015 BKN060 75 74     96%   77 30.01        
Aug 07 05:15   7 Mostly Cloudy BKN060 75 74     96%   77 30.01        
Aug 07 04:55   7 Cloudy SCT009 BKN019 OVC060 75 74     96%   77 30.01   0    
Aug 07 04:35   7 Light Drizzle BKN009 BKN015 OVC021 75 74     96%   77 30.01   0    
Aug 07 04:15   4 Rain BKN009 OVC013 74 73     96%   76 30.01   0    
Aug 07 03:55   10 Rain SCT011 BKN024 OVC048 74 73     96%   76 30.01        
Aug 07 03:35   10 Cloudy SCT022 SCT042 OVC048 74 73     95%   76 30.01        
Aug 07 03:15   10 Cloudy SCT020 BKN045 OVC070 74 73     95%   76 30.01        
Aug 07 02:55   10 Cloudy BKN029 BKN042 OVC080 75 73     95%   76 30.02        
Aug 07 02:35   10 Mostly Cloudy SCT029 SCT042 BKN080 74 73     95%   76 30.02        
Aug 07 02:15   10 Cloudy SCT026 BKN042 OVC049 74 73     95%   76 30.01        
Aug 07 01:55   10 Mostly Cloudy SCT026 SCT039 BKN049 74 73     96%   75 30.01        
Aug 07 01:35   10 Mostly Cloudy SCT039 SCT047 BKN070 74 73     96%   76 30.01        
Aug 07 01:15   7 Rain BKN040 OVC047 74 73     96%   75 30.02        
Aug 07 00:55   7 Drizzle SCT011 BKN038 BKN060 74 73     97%   75 30.03   0   0
Aug 07 00:35   10 Mostly Cloudy SCT011 SCT041 BKN080 74 72     96%   75 30.03   0    
Aug 07 00:15   10 Rain SCT018 SCT028 BKN041 74 73     96%   76 30.04   0    
Aug 06 23:55   10 Cloudy SCT020 BKN026 OVC075 74 73     96%   76 30.04   0    
Aug 06 23:35   10 Light Rain SCT019 BKN029 OVC035 74 73     96%   76 30.04   0    
Aug 06 23:15   7 Light Rain SCT019 BKN029 OVC075 74 72     94%   76 30.04   0    
Aug 06 22:55   10 Cloudy SCT023 BKN034 OVC100 76 72     88%   78 30.04        
Aug 06 22:35   10 Mostly Cloudy BKN024 BKN050 76 72     90%   77 30.05        
Aug 06 22:15   10 Mostly Cloudy BKN050 BKN110 76 72     90%   77 30.04        
Aug 06 21:55   10 Mostly Cloudy SCT060 BKN120 75 72     90%   77 30.03        
Aug 06 21:35   10 Partly Cloudy SCT050 SCT070 SCT120 75 72     90%   77 30.03        
Aug 06 21:15   10 Mostly Cloudy BKN050 BKN070 76 72     88%   77 30.03        
Aug 06 20:55   10 Partly Cloudy SCT055 SCT120 76 72     89%   77 30.02        
Aug 06 20:35   10 Clear CLR 76 72     88%   77 30.01        
Aug 06 20:15   10 Clear CLR 76 72     88%   77 30        
Aug 06 19:55   10 Partly Cloudy SCT120 76 72     87%   78 30.01        
Aug 06 19:35   10 Partly Cloudy SCT120 77 72     85%   78 30.01        
Aug 06 19:15   10 Clear CLR 77 72     83%   79 30        
Aug 06 18:55   10 Clear CLR 78 72     82%   79 30       0
Aug 06 18:35   10 Clear CLR 78 72     82%   79 30        
Aug 06 18:15   10 Clear CLR 78 73     84%   80 30        
Aug 06 17:55   10 Partly Cloudy SCT050 SCT080 78 73     83%   80 30.01        
Aug 06 17:35   10 Mostly Cloudy SCT037 BKN050 BKN060 80 73     79%   84 30.01        
Aug 06 17:15   10 Thunderstorms SCT050 SCT060 BKN080 81 74     82%   86 30.01        
Aug 06 16:55   10 Thunderstorms CLR 80 74     81%   85 30   0    
Aug 06 16:35   10 Thunderstorms SCT015 SCT025 BKN090 79 74     85%   82 29.99   0    
Aug 06 16:15   4 Thunderstorms and Heavy Rain SCT015 SCT025 OVC047 79 74     86%   82 30.01   0    
Aug 06 15:55   10 Mostly Cloudy SCT048 BKN060 BKN070 87 70     58%   92 30        
Aug 06 15:35   10 Partly Cloudy SCT048 SCT065 88 71     57%   95 29.99        
Aug 06 15:15   10 Mostly Cloudy SCT043 BKN050 BKN070 90 72     56%   97 30        
Aug 06 14:55   10 Mostly Cloudy SCT043 SCT049 BKN070 87 72     60%   94 30        
Aug 06 14:35   10 Partly Cloudy SCT041 SCT050 SCT070 88 71     57%   93 30.01        
Aug 06 14:15   10 Partly Cloudy SCT040 SCT050 89 73     60%   97 30.01        
Aug 06 13:55   10 Partly Cloudy SCT040 SCT046 SCT055 87 72     61%   93 30.02        
Aug 06 13:35   10 Partly Cloudy SCT042 SCT049 SCT055 89 71     57%   95 30.03        
Aug 06 13:15   10 Partly Cloudy SCT040 SCT049 SCT090 88 72     59%   96 30.03        
Aug 06 12:55   10 Partly Cloudy SCT042 SCT050 SCT085 88 72     59%   94 30.04       0
Aug 06 12:35   10 Partly Cloudy SCT050 SCT085 86 72     62%   93 30.05        
Aug 06 12:15   10 Partly Cloudy SCT030 SCT038 SCT050 87 72     62%   94 30.05        
Aug 06 11:55   10 Partly Cloudy SCT028 SCT034 SCT043 87 74     67%   95 30.05        
Aug 06 11:35   10 Mostly Cloudy SCT026 SCT031 BKN037 84 73     70%   91 30.06        
Aug 06 11:15   10 Partly Cloudy SCT028 SCT037 85 74     70%   92 30.06        
Aug 06 10:55   10 Mostly Cloudy SCT021 SCT031 BKN037 82 74     78%   88 30.07   0    
Aug 06 10:35   10 Mostly Cloudy SCT022 SCT035 BKN043 81 75     83%   87 30.06   0    
Aug 06 10:15   7 Light Rain SCT020 SCT030 BKN041 79 74     86%   82 30.07   0    
Aug 06 09:55   10 Mostly Cloudy SCT014 SCT023 BKN050 80 74     84%   84 30.06        
Aug 06 09:35   10 Cloudy BKN014 BKN018 OVC023 80 74     83%   84 30.07        
Aug 06 09:15   10 Mostly Cloudy SCT014 BKN018 81 75     82%   87 30.07        
Aug 06 08:55   10 Mostly Cloudy SCT009 SCT013 BKN043 78 74     87%   81 30.07        
Aug 06 08:35   10 Mostly Cloudy SCT009 BKN043 78 74     88%   80 30.07        
Aug 06 08:15   10 Clear CLR 77 74     90%   79 30.07        
Aug 06 07:55   10 Clear CLR 76 73     91%   78 30.07        
Aug 06 07:35   10 Partly Cloudy SCT009 74 72     94%   76 30.07        
Aug 06 07:15   7 Mostly Cloudy BKN009 73 72     95%   75 30.07        
Aug 06 06:55   7 Partly Cloudy SCT011 72 71     96%   74 30.06        
Aug 06 06:35   7 Partly Cloudy SCT013 72 71     97%   73 30.06        
Aug 06 06:15   7 Partly Cloudy SCT029 72 71     97%   73 30.06        
Aug 06 05:55   7 Mostly Cloudy SCT022 BKN031 BKN038 72 71     96%   73 30.06        
Aug 06 05:35   7 Mostly Cloudy SCT020 BKN026 BKN033 72 71     96%   74 30.06        
Aug 06 05:15   7 Partly Cloudy SCT026 71 71     97%   73 30.05        
Aug 06 04:55   7 Clear CLR 72 71     96%   73 30.05        
Aug 06 04:35   7 Clear CLR 72 71     96%   73 30.04        
Aug 06 04:15   7 Clear CLR 72 71     97%   73 30.04        
Aug 06 03:55   10 Clear CLR 72 71     95%   74 30.03        
Aug 06 03:35   10 Clear CLR 73 71     96%   74 30.03        
Aug 06 03:15   10 Clear CLR 72 71     95%   74 30.03        
Aug 06 02:55   7 Clear CLR 73 71     96%   74 30.02        
Aug 06 02:35   7 Partly Cloudy SCT032 SCT110 73 72     96%   74 30.02        
Aug 06 02:15   10 Mostly Cloudy SCT037 SCT047 BKN110 74 72     92%   76 30.03        
Aug 06 01:55   10 Mostly Cloudy BKN037 BKN047 BKN050 75 72     92%   77 30.02        
Aug 06 01:35   10 Mostly Cloudy BKN039 BKN050 BKN060 74 73     94%   76 30.02        
Aug 06 01:15   7 Mostly Cloudy SCT043 SCT050 BKN120 73 72     96%   75 30.02        
Aug 06 00:55   10 Mostly Cloudy SCT045 BKN120 74 72     93%   76 30.03        
Aug 06 00:35   10 Partly Cloudy SCT045 74 72     94%   75 30.03        
Aug 06 00:15   10 Clear CLR 74 72     93%   76 30.03        
Aug 05 23:55   10 Clear CLR 74 72     94%   75 30.03        
Aug 05 23:35   10 Clear CLR 74 72     95%   76 30.03        
Aug 05 23:15   10 Clear CLR 74 73     95%   76 30.03        
Aug 05 22:55   10 Clear CLR 76 73     92%   77 30.04        
Aug 05 22:35   10 Clear CLR 76 73     91%   78 30.05        
Aug 05 22:15   10 Partly Cloudy SCT048 SCT065 SCT075 77 74     91%   78 30.05        
Aug 05 21:55   10 Mostly Cloudy SCT050 BKN055 76 74     94%   78 30.05        
Aug 05 21:35   10 Partly Cloudy SCT050 77 73     88%   79 30.05        
Aug 05 21:15   10 Clear CLR 78 73     87%   79 30.04        
Aug 05 20:55   10 Clear CLR 77 73     88%   79 30.04        
Aug 05 20:35   10 Clear CLR 78 73     87%   79 30.04        
Aug 05 20:15   10 Clear CLR 80 74     82%   83 30.03        
Aug 05 19:55   10 Clear CLR 81 74     79%   85 30.03        
Aug 05 19:35   10 Clear CLR 84 72     67%   89 30.03        
Aug 05 19:15   10 Clear CLR 85 71     64%   90 30.03        
Aug 05 18:55   10 Clear CLR 86 72     63%   92 30.03        
Aug 05 18:35   10 Clear CLR 86 71     59%   92 30.03        
Aug 05 18:15   10 Clear CLR 87 71     58%   92 30.03        
Aug 05 17:55   10 Clear CLR 88 71     57%   93 30.03        
Aug 05 17:35   10 Clear CLR 88 70     56%   93 30.03        
Aug 05 17:15   10 Partly Cloudy SCT044 89 70     55%   94 30.03        
Aug 05 16:55   10 Clear CLR 89 70     54%   94 30.03        
Aug 05 16:35   10 Clear CLR 89 71     55%   95 30.04        
Aug 05 16:15   10 Clear CLR 89 70     54%   93 30.04        
Aug 05 15:55   10 Clear CLR 88 70     55%   93 30.04        
Aug 05 15:35   10 Clear CLR 88 70     55%   93 30.04        
Aug 05 15:15   10 Clear CLR 88 70     54%   93 30.04        
Aug 05 14:55   10 Partly Cloudy SCT043 88 70     55%   92 30.05        
Aug 05 14:35   10 Mostly Cloudy BKN043 88 70     55%   93 30.06        
Aug 05 14:15   10 Clear CLR 86 70     59%   90 30.06        
Aug 05 13:55   10 Partly Cloudy SCT037 86 69     58%   91 30.07        
Aug 05 13:35   10 Partly Cloudy SCT037 SCT047 85 70     60%   90 30.08        
Aug 05 13:15   10 Partly Cloudy SCT041 SCT049 84 70     62%   89 30.08        
Aug 05 12:55   10 Partly Cloudy SCT033 85 70     61%   89 30.08        
Aug 05 12:35   10 Partly Cloudy SCT035 86 71     62%   91 30.09        
Aug 05 12:15   10 Partly Cloudy SCT035 84 71     64%   89 30.09        
Aug 05 11:55   10 Partly Cloudy SCT035 84 70     63%   88 30.09        
Aug 05 11:35   10 Clear CLR 82 70     67%   86 30.09        
Aug 05 11:15   10 Partly Cloudy SCT026 82 71     69%   86 30.09        
Aug 05 10:55   10 Partly Cloudy SCT024 81 71     70%   85 30.1        
Aug 05 10:35   10 Partly Cloudy SCT024 81 71     71%   84 30.1        
Aug 05 10:15   10 Clear CLR 80 70     73%   83 30.11        
Aug 05 09:55   10 Clear CLR 79 71     75%   82 30.11        
Aug 05 09:35   10 Clear CLR 79 70     75%   80 30.11        
Aug 05 09:15   10 Clear CLR 78 70     77%   79 30.11        
Aug 05 08:55   10 Clear CLR 77 70     79%   78 30.1        
Aug 05 08:35   10 Clear CLR 76 70     82%   77 30.1        
Aug 05 08:15   10 Clear CLR 75 70     84%   76 30.09        
Aug 05 07:55   10 Clear CLR 74 70     89%   75 30.09        
Aug 05 07:35   10 Clear CLR 73 70     89%   75 30.08        
Aug 05 07:15   10 Clear CLR 72 70     91%   74 30.07        
Aug 05 06:55   7 Clear CLR 71 70     96%   72 30.06        
Aug 05 06:35   10 Clear CLR 71 69     94%   72 30.06        
Aug 05 06:15   10 Clear CLR 71 69     95%   72 30.06        
Aug 05 05:55   10 Clear CLR 72 69     93%   73 30.05        
Aug 05 05:35   10 Clear CLR 71 70     95%   73 30.05        
Aug 05 05:15   7 Clear CLR 71 70     96%   73 30.04        
Aug 05 04:55   7 Clear CLR 72 70     96%   73 30.03        
Aug 05 04:35   7 Clear CLR 71 71     97%   73 30.03        
Aug 05 04:15   7 Clear CLR 72 71     96%   73 30.03        
Aug 05 03:55   7 Clear CLR 72 71     97%   73 30.03        
Aug 05 03:35   5 Fog/Mist SCT034 72 71     98%   73 30.03        
Aug 05 03:15   5 Fog/Mist SCT034 72 71     97%   73 30.04        
Aug 05 02:55   7 Partly Cloudy SCT039 72 72     97%   74 30.04        
Aug 05 02:35   7 Partly Cloudy SCT031 SCT039 SCT060 72 72     97%   74 30.04        
Aug 05 02:15   7 Cloudy BKN031 BKN039 OVC060 73 72     96%   74 30.04        
Aug 05 01:55   7 Mostly Cloudy SCT036 BKN045 72 71     96%   74 30.04        
Aug 05 01:35   7 Clear CLR 72 71     96%   73 30.04        
Aug 05 01:15   7 Clear CLR 72 71     96%   73 30.03        
Aug 05 00:55   10 Clear CLR 72 71     95%   74 30.03        
Aug 05 00:35   7 Clear CLR 72 71     95%   74 30.03        
Aug 05 00:15   7 Clear CLR 72 71     96%   74 30.03        
Aug 04 23:55   10 Clear CLR 73 72     95%   75 30.03        
Aug 04 23:35   10 Clear CLR 73 72     95%   75 30.02        
Aug 04 23:15   7 Clear CLR 74 72     95%   75 30.03        
Aug 04 22:55   10 Partly Cloudy SCT070 74 72     94%   76 30.03        
Aug 04 22:35   10 Mostly Cloudy SCT049 BKN070 BKN080 77 72     82%   79 30.04        
Aug 04 22:15   10 Partly Cloudy SCT060 76 73     89%   78 30.03        
Aug 04 21:55   10 Clear CLR 77 73     88%   78 30.03        
Aug 04 21:35   10 Clear CLR 78 72     82%   80 30.03        
Aug 04 21:15   10 Clear CLR 78 73     83%   80 30.03        
Aug 04 20:55   10 Partly Cloudy SCT045 79 72     80%   83 30.02        
Aug 04 20:35   10 Partly Cloudy SCT046 79 73     83%   82 30.02        
Aug 04 20:15   10 Mostly Cloudy BKN046 81 73     78%   85 30.01        
Aug 04 19:55   10 Partly Cloudy SCT046 81 73     76%   86 30        
Aug 04 19:35   10 Mostly Cloudy BKN046 BKN060 BKN070 80 75     85%   85 30        
Aug 04 19:15   10 Light Rain SCT046 BKN060 BKN070 80 77     90%   85 30        
Aug 04 18:55   10 Light Rain SCT046 81 76     83%   87 30        
Aug 04 18:35   10 Clear CLR 83 72     70%   89 29.99        
Aug 04 18:15   10 Clear CLR 83 72     69%   89 29.99        
Aug 04 17:55   10 Clear CLR 85 70     60%   90 29.99        
Aug 04 17:35   10 Clear CLR 86 70     59%   91 30        
Aug 04 17:15   10 Partly Cloudy SCT046 SCT055 88 71     57%   94 30        
Aug 04 16:55   10 Partly Cloudy SCT065 88 71     56%   94 30        
Aug 04 16:35   10 Clear CLR 87 69     55%   91 29.99        
Aug 04 16:15   10 Clear CLR 89 70     54%   93 29.99        
Aug 04 15:55   10 Partly Cloudy SCT041 89 70     54%   94 30        
Aug 04 15:35   10 Mostly Cloudy BKN042 BKN060 89 71     55%   95 30        
Aug 04 15:15   10 Partly Cloudy SCT044 SCT050 88 71     56%   94 30.01        
Aug 04 14:55   10 Partly Cloudy SCT040 88 70     55%   93 30.01        
Aug 04 14:35   10 Partly Cloudy SCT040 87 71     60%   92 30.02        
Aug 04 14:15   10 Partly Cloudy SCT040 87 70     58%   92 30.03        
Aug 04 13:55   10 Clear CLR 85 71     63%   90 30.03        
Aug 04 13:35   10 Partly Cloudy SCT031 SCT050 85 72     63%   91 30.04        
Aug 04 13:15   10 Clear CLR 85 72     65%   91 30.05        
Aug 04 12:55   10 Clear CLR 85 72     65%   91 30.06        
Aug 04 12:35   10 Partly Cloudy SCT025 85 73     68%   91 30.07        
Aug 04 12:15   10 Partly Cloudy SCT025 SCT031 SCT085 83 72     68%   88 30.07        
Aug 04 11:55   10 Partly Cloudy SCT090 83 72     69%   88 30.08        
Aug 04 11:35   10 Mostly Cloudy SCT022 BKN090 83 73     72%   88 30.09        
Aug 04 11:15   10 Mostly Cloudy SCT019 BKN024 80 72     76%   84 30.09        
Aug 04 10:55   10 Cloudy BKN022 OVC095 80 71     76%   83 30.09        
Aug 04 10:35   10 Cloudy OVC095 80 72     76%   83 30.09        
Aug 04 10:15   10 Mostly Cloudy SCT018 SCT050 BKN095 79 71     75%   82 30.09        
Aug 04 09:55   10 Mostly Cloudy SCT018 BKN050 BKN095 80 71     75%   84 30.09        
Aug 04 09:35   10 Partly Cloudy SCT016 SCT055 80 72     77%   83 30.09        
Aug 04 09:15   10 Partly Cloudy SCT008 SCT012 SCT090 78 72     83%   79 30.09        
Aug 04 08:55   10 Cloudy SCT008 SCT033 OVC090 77 72     86%   78 30.09        
Aug 04 08:35   10 Cloudy OVC033 75 72     91%   77 30.1        
Aug 04 08:15   10 Cloudy SCT017 BKN033 OVC043 74 72     93%   76 30.1        
Aug 04 07:55   10 Cloudy BKN019 OVC043 73 72     95%   75 30.09        
Aug 04 07:35   10 Cloudy BKN019 OVC040 73 71     95%   74 30.09        
Aug 04 07:15   10 Cloudy OVC017 72 71     96%   73 30.09        
Aug 04 06:55   10 Cloudy SCT010 OVC017 72 71     96%   73 30.09        
Aug 04 06:35   10 Cloudy OVC017 71 70     97%   73 30.09        
Aug 04 06:15   10 Cloudy OVC015 72 71     96%   73 30.08        
Aug 04 05:55   10 Cloudy OVC013 72 70     95%   73 30.08        
Aug 04 05:35   10 Cloudy OVC015 71 70     97%   72 30.07        
Aug 04 05:15   10 Cloudy OVC015 71 70     97%   72 30.07        
Aug 04 04:55   10 Cloudy OVC015 71 70     97%   72 30.06        
Notice The following observation data may not be complete
Jun 12 07:15   10 Clear CLR          %              
Notice The following observation data may not be complete
Jun 12 06:35   10 Clear CLR          %              
Jun 11 15:15 SSE 9 10 Clear   88 70     55%   94 30.12        
Notice The following observation data may not be complete
Jun 11 12:35   10 Mostly Cloudy SCT034 SCT046 BKN070          %              
Jun 11 12:15 SE 9 10 Mostly Cloudy SCT029 SCT050 BKN070 85 71     64%   90 30.16        
Jun 11 10:15 SE 7 10 Partly Cloudy SCT021 82 72     73%   87 30.18        
Notice The following observation data may not be complete
Jun 11 04:35   10 Clear CLR          %              
Jun 11 03:15 Calm 10 Mostly Cloudy BKN070 65 63     92%     30.1        
Jun 10 17:55 SSE 7 10 Clear   85 63     49%   86 30.05        
Notice The following observation data may not be complete
Jun 10 15:35   10 Partly Cloudy SCT075 SCT095          %              
Jun 09 20:35 Calm 10 Partly Cloudy SCT065 74 64     70%   75 29.96        
Jun 09 15:15 Calm 10 Mostly Cloudy BKN065 83 59     44%   83 29.96        
Jun 09 11:35 SSW 5 10 Mostly Cloudy BKN050 80 59     49%   80 30        
Jun 09 09:55 Calm 10 Clear CLR 76 62     61%   77 30        
Jun 09 04:15 Calm 10 Clear CLR 61 59     94%     29.93        
Jun 09 01:15 Calm 10 Clear CLR 63 62     94%     29.93        
Notice The following observation data may not be complete
Jun 08 21:15   10 Mostly Cloudy BKN060          %              
Notice The following observation data may not be complete
Jun 08 16:15   10 Partly Cloudy SCT055          %              
Jun 08 14:15 W 7 10 Clear CLR 81 59     48%   81 29.9        
Jun 08 13:15 WSW 5 10 Partly Cloudy SCT040 SCT046 80 60     51%   80 29.92        
Jun 08 08:15 Calm 10 Clear   66 60     81%     29.94        
Jun 08 07:55 Calm 10 Clear CLR 65 61     88%     29.94        
Jun 08 07:15 Calm 10 Mostly Cloudy BKN048 63 59     88%     29.93        
Jun 07 23:15 Calm 10 Clear CLR 65 57     77%     29.9        
Jun 07 22:35 Calm 10 Clear CLR 64 59     82%     29.89        
Jun 07 19:35 N 6 10 Clear CLR 77 55     47%   77 29.85        
Jun 07 19:15 N 5 10 Clear CLR 78 55     44%   78 29.84        
Notice The following observation data may not be complete
Jun 07 15:15   10 Partly Cloudy SCT043 SCT050          %              
Jun 07 10:15 NE 8 10 Clear CLR 74 62     67%   74 29.84        
Jun 07 09:55 NE 13 10 Clear CLR 74 62     67%   74 29.84        
Jun 06 12:35 NE 9 10 Partly Cloudy SCT014 SCT038 76 71     86%   77 29.81        
Jun 06 04:35 Calm 7 Partly Cloudy SCT036 SCT065 SCT110 70 69     98%     29.8        
Notice The following observation data may not be complete
Jun 05 22:15   10 Clear CLR          %              
Jun 05 17:15 SSE 7 10 Thunderstorms and Rain OVC095 74 72     96%   75 29.82   0